Location: Newark
(43.4100°N, 74.9600°W)
Time: 16:07:25
(UTC+00:00)

ISS - Pass Details

Date: 22 September 2019
Orbit: 411 x 421 km, 51.6° (Epoch: 21 October)

Event Time Altitude Azimuth Distance (km) Brightness Sun altitude
Rises 00:42:04 0° 250° (WSW) 2,336 0.8 -19.1°
Reaches altitude 10° 00:44:11 10° 256° (WSW) 1,476 -0.2 -19.5°
Maximum altitude 00:47:25 50° 333° (NNW) 535 -3.0 -20.0°
Enters shadow 00:48:11 40° 17° (NNE) 626 -2.9 -20.1°
